Regional Weather Roundup
Issued by NWS

Home | Current Version | Previous Version | Graphics & Text | Print | Product List | Glossary On
Versions: 1 2 3 4 5 6 7 8 9 10 11 12 13 14 15 16 17 18 19 20 21 22 23 24 25 26 27 28 29 30 31 32 33 34 35 36 37 38 39 40 41 42 43 44 45 46 47 48 49 50
279
ASUS43 KTOP 241859
RWRKS

WEATHER ROUNDUP FOR KANSAS
NATIONAL WEATHER SERVICE GOODLAND KS
200 PM CDT FRI MAR 24 2017

NOTE:  "FAIR" INDICATES FEW OR NO CLOUDS BELOW 12,000 FEET WITH NO
SIGNIFICANT WEATHER AND/OR OBSTRUCTIONS TO VISIBILITY.

KSZ001>006-013>018-027>032-041>047-242000-
NORTHWEST KANSAS

CITY           SKY/WX    TMP DP  RH WIND       PRES   REMARKS
GOODLAND       CLOUDY    41  40  96 N23       29.95R
HAYS             N/A     60  47  61 N31G37    29.79R
HILL CITY      CLOUDY    45  42  89 NE26G32   29.91R
RUSSELL        SUNNY     73  30  20 N10G23    29.77S
$$

KSZ061>065-074>080-084>089-242000-
SOUTHWEST KANSAS

CITY           SKY/WX    TMP DP  RH WIND       PRES   REMARKS
DODGE CITY     SUNNY     68  29  23 SE13G24   29.73R
ELKHART          N/A     49  34  56 N23         N/A
GARDEN CITY    CLOUDY    60  32  34 NE12      29.77R
GREAT BEND     SUNNY     73  28  18 SE18G24   29.74
LIBERAL        CLOUDY    55  34  44 NE8       29.74R
$$

KSZ066>073-081>083-090>101-242000-
SOUTHEAST KANSAS

CITY           SKY/WX    TMP DP  RH WIND       PRES   REMARKS
CHANUTE        CLOUDY    69  56  62 S24G30    29.83F
COFFEYVILLE    CLOUDY    68  57  68 S20G30    29.82F
HUTCHINSON     SUNNY     77  35  21 S16G25    29.74F
MEDICINE LODGE   N/A     72  26  18 SE15G24   29.70F
NEWTON         PTSUNNY   71  47  42 S10G18    29.77S
PARSONS        PTSUNNY   68  56  65 SE9G22    29.83F
WICHITA INTL   MOSUNNY   76  44  32 S15G22    29.74F
WICHITA JABRA  MOSUNNY   74  48  39 SE15G23   29.76F
WINFIELD       MOSUNNY   70  59  68 SE10      29.74F
$$

KSZ007>012-019>026-033>040-048>060-102>105-242000-
NORTHEAST KANSAS

CITY           SKY/WX    TMP DP  RH WIND       PRES   REMARKS
CONCORDIA      PTSUNNY   57  50  77 NE21G29   29.81F
EMPORIA        CLOUDY    68  55  63 S22G33    29.79F
LAWRENCE       CLOUDY    66  57  72 SE8       29.84S
MANHATTAN      CLOUDY    70  53  54 S3        29.79S
OLATHE IND     LGT RAIN  64  56  75 S13       29.86S
OLATHE EXE     CLOUDY    65  55  70 S13G23    29.85S
SALINA         SUNNY     77  34  21 S12       29.77S
TOPEKA BILLARD CLOUDY    67  56  67 SE9       29.81F
TOPEKA FORBES  CLOUDY    69  54  58 S9        29.82S
$$




USA.gov is the U.S. government's official web portal to all federal, state and local government web resources and services.